When you browse on this site, cookies collect data to enhance your experience and personalize the content and advertising you see.
Visit our Privacy Policy to learn more. By continuing to use the site, you agree to this use of cookies and data.
  • In Germany
  • List of Countries
  • For 7 days
  • Water Temperature
  • Weather Map
  • Weather Widgets
  • user-avatar
    Login

    Hourly Weather Sharan

    Today, 13 November, Wednesday

    Time Temperature Precipitation Wind Pressure Humidity
    00:00 +6°C° 0 mm 1 mps 587 mmHg 83%
    01:00 +6°C° 0 mm 1 mps 587 mmHg 84%
    02:00 +5°C° 0 mm 1 mps 586 mmHg 85%
    03:00 +5°C° 0 mm 1 mps 586 mmHg 86%
    04:00 +4°C° 0 mm 2 mps 586 mmHg 86%
    05:00 +4°C° 0 mm 2 mps 586 mmHg 86%
    06:00 +4°C° 0 mm 2 mps 587 mmHg 84%
    07:00 +4°C° 0 mm 2 mps 587 mmHg 82%
    08:00 +4°C° 0 mm 2 mps 587 mmHg 80%
    09:00 +7°C° 0 mm 1 mps 588 mmHg 68%
    10:00 +8°C° 0 mm 1 mps 589 mmHg 57%
    11:00 +10°C° 0 mm 1 mps 590 mmHg 46%
    12:00 +10°C° 0 mm 1 mps 589 mmHg 42%
    13:00 +11°C° 0 mm 1 mps 589 mmHg 37%
    14:00 +12°C° 0 mm 1 mps 589 mmHg 32%
    15:00 +12°C° 0 mm 1 mps 589 mmHg 32%
    16:00 +12°C° 0 mm 2 mps 589 mmHg 33%
    17:00 +12°C° 0 mm 2 mps 589 mmHg 33%
    18:00 +11°C° 0 mm 1 mps 589 mmHg 37%
    19:00 +10°C° 0 mm 1 mps 589 mmHg 42%
    20:00 +8°C° 0 mm 0 mps 589 mmHg 46%
    21:00 +7°C° 0 mm 0 mps 588 mmHg 48%
    22:00 +7°C° 0 mm 0 mps 588 mmHg 49%
    23:00 +7°C° 0 mm 0 mps 588 mmHg 51%

    Tomorrow, 14 November, Thursday

    Time Temperature Precipitation Wind Pressure Humidity
    00:00 +6°C° 0 mm 0 mps 588 mmHg 51%
    01:00 +6°C° 0 mm 0 mps 588 mmHg 52%
    02:00 +7°C° 0 mm 1 mps 587 mmHg 52%
    03:00 +7°C° 0 mm 1 mps 587 mmHg 52%
    04:00 +7°C° 0 mm 1 mps 587 mmHg 51%
    05:00 +7°C° 0 mm 1 mps 587 mmHg 50%
    06:00 +7°C° 0 mm 1 mps 588 mmHg 50%
    07:00 +7°C° 0 mm 1 mps 588 mmHg 50%
    08:00 +7°C° 0 mm 2 mps 589 mmHg 50%
    09:00 +7°C° 0.1 mm 2 mps 589 mmHg 52%
    10:00 +7°C° 0.1 mm 2 mps 589 mmHg 55%
    11:00 +8°C° 0.1 mm 2 mps 589 mmHg 58%
    12:00 +8°C° 0.5 mm 3 mps 589 mmHg 62%
    13:00 +7°C° 0.5 mm 3 mps 588 mmHg 67%
    14:00 +7°C° 0.5 mm 3 mps 588 mmHg 72%
    15:00 +7°C° 0 mm 3 mps 588 mmHg 71%
    16:00 +7°C° 0 mm 2 mps 588 mmHg 69%
    17:00 +7°C° 0 mm 2 mps 587 mmHg 67%
    18:00 +7°C° 0.2 mm 2 mps 588 mmHg 70%
    19:00 +7°C° 0.2 mm 2 mps 588 mmHg 73%
    20:00 +6°C° 0.2 mm 2 mps 588 mmHg 75%
    21:00 +6°C° 1.3 mm 2 mps 588 mmHg 80%
    22:00 +5°C° 1.3 mm 2 mps 587 mmHg 85%
    23:00 +4°C° 1.3 mm 3 mps 587 mmHg 90%

    Day after tomorrow, 15 November, Friday

    Time Temperature Precipitation Wind Pressure Humidity
    00:00 +4°C° 0.3 mm 3 mps 587 mmHg 88%
    01:00 +4°C° 0.3 mm 3 mps 587 mmHg 87%
    02:00 +4°C° 0.3 mm 3 mps 587 mmHg 85%
    03:00 +4°C° 0.1 mm 3 mps 587 mmHg 85%
    04:00 +4°C° 0.1 mm 3 mps 586 mmHg 84%
    05:00 +5°C° 0.1 mm 2 mps 586 mmHg 84%
    06:00 +4°C° 0.4 mm 2 mps 586 mmHg 86%
    07:00 +5°C° 0.4 mm 1 mps 587 mmHg 88%
    08:00 +5°C° 0.4 mm 1 mps 587 mmHg 90%
    09:00 +5°C° 0.5 mm 1 mps 587 mmHg 89%
    10:00 +6°C° 0.5 mm 1 mps 587 mmHg 89%
    11:00 +6°C° 0.5 mm 1 mps 587 mmHg 88%
    12:00 +6°C° 0 mm 1 mps 587 mmHg 84%
    13:00 +6°C° 0 mm 2 mps 587 mmHg 80%
    14:00 +7°C° 0 mm 2 mps 587 mmHg 76%
    15:00 +5°C° 0.7 mm 2 mps 586 mmHg 87%
    16:00 +6°C° 0.7 mm 1 mps 586 mmHg 88%
    17:00 +6°C° 0.7 mm 1 mps 586 mmHg 89%
    18:00 +6°C° 0.4 mm 1 mps 586 mmHg 89%
    19:00 +6°C° 0.4 mm 1 mps 586 mmHg 89%
    20:00 +6°C° 0.4 mm 1 mps 586 mmHg 88%
    21:00 +6°C° 0.2 mm 1 mps 586 mmHg 88%
    22:00 +6°C° 0.2 mm 1 mps 587 mmHg 87%
    23:00 +6°C° 0.2 mm 1 mps 587 mmHg 87%

    16 November, Saturday

    Time Temperature Precipitation Wind Pressure Humidity
    00:00 +6°C° 0.1 mm 1 mps 586 mmHg 87%
    01:00 +6°C° 0.1 mm 1 mps 586 mmHg 87%
    02:00 +5°C° 0.1 mm 2 mps 586 mmHg 87%
    03:00 +5°C° 0 mm 2 mps 586 mmHg 86%
    04:00 +5°C° 0 mm 2 mps 585 mmHg 85%
    05:00 +4°C° 0 mm 3 mps 585 mmHg 84%
    06:00 +5°C° 0 mm 2 mps 586 mmHg 82%
    07:00 +5°C° 0 mm 2 mps 586 mmHg 81%
    08:00 +6°C° 0 mm 1 mps 586 mmHg 79%
    09:00 +7°C° 0 mm 1 mps 587 mmHg 77%
    10:00 +7°C° 0 mm 1 mps 587 mmHg 74%
    11:00 +7°C° 0 mm 2 mps 588 mmHg 71%
    12:00 +8°C° 0 mm 2 mps 588 mmHg 67%
    13:00 +9°C° 0 mm 2 mps 588 mmHg 62%
    14:00 +9°C° 0 mm 2 mps 588 mmHg 57%
    15:00 +10°C° 0 mm 1 mps 588 mmHg 56%
    16:00 +10°C° 0 mm 1 mps 588 mmHg 55%
    17:00 +11°C° 0 mm 1 mps 588 mmHg 54%
    18:00 +10°C° 0 mm 1 mps 588 mmHg 57%
    19:00 +9°C° 0 mm 1 mps 588 mmHg 60%
    20:00 +9°C° 0 mm 1 mps 588 mmHg 63%
    21:00 +8°C° 0 mm 1 mps 588 mmHg 65%
    22:00 +8°C° 0 mm 1 mps 588 mmHg 67%
    23:00 +7°C° 0 mm 1 mps 587 mmHg 68%

    17 November, Sunday

    Time Temperature Precipitation Wind Pressure Humidity
    00:00 +7°C° 0 mm 1 mps 587 mmHg 69%
    01:00 +7°C° 0 mm 1 mps 587 mmHg 70%
    02:00 +6°C° 0 mm 1 mps 587 mmHg 71%
    03:00 +6°C° 0 mm 1 mps 587 mmHg 72%
    04:00 +6°C° 0 mm 1 mps 586 mmHg 73%
    05:00 +5°C° 0 mm 1 mps 586 mmHg 74%
    06:00 +6°C° 0 mm 1 mps 587 mmHg 72%
    07:00 +6°C° 0 mm 1 mps 587 mmHg 69%
    08:00 +6°C° 0 mm 1 mps 588 mmHg 67%
    09:00 +7°C° 0 mm 1 mps 588 mmHg 63%
    10:00 +8°C° 0 mm 1 mps 588 mmHg 58%
    11:00 +9°C° 0 mm 1 mps 589 mmHg 54%
    12:00 +10°C° 0 mm 1 mps 589 mmHg 50%
    13:00 +11°C° 0 mm 1 mps 588 mmHg 46%
    14:00 +11°C° 0 mm 1 mps 588 mmHg 43%
    15:00 +10°C° 0 mm 2 mps 588 mmHg 42%
    16:00 +10°C° 0 mm 2 mps 588 mmHg 42%
    17:00 +10°C° 0 mm 2 mps 588 mmHg 42%
    18:00 +9°C° 0 mm 2 mps 588 mmHg 45%
    19:00 +9°C° 0 mm 1 mps 587 mmHg 48%
    20:00 +9°C° 0 mm 1 mps 587 mmHg 51%
    21:00 +8°C° 0 mm 1 mps 587 mmHg 52%
    22:00 +8°C° 0 mm 1 mps 587 mmHg 53%
    23:00 +7°C° 0 mm 1 mps 587 mmHg 55%

    18 November, Monday

    Time Temperature Precipitation Wind Pressure Humidity
    00:00 +7°C° 0 mm 1 mps 586 mmHg 56%
    01:00 +6°C° 0 mm 1 mps 586 mmHg 57%
    02:00 +6°C° 0 mm 1 mps 585 mmHg 59%
    03:00 +5°C° 0 mm 1 mps 585 mmHg 60%
    04:00 +4°C° 0 mm 0 mps 585 mmHg 61%
    05:00 +3°C° 0 mm 0 mps 584 mmHg 62%
    06:00 +4°C° 0 mm 0 mps 585 mmHg 60%
    07:00 +4°C° 0 mm 0 mps 585 mmHg 59%
    08:00 +5°C° 0 mm 1 mps 586 mmHg 57%
    09:00 +6°C° 0 mm 1 mps 586 mmHg 51%
    10:00 +8°C° 0 mm 1 mps 586 mmHg 44%
    11:00 +9°C° 0 mm 1 mps 587 mmHg 38%
    12:00 +9°C° 0 mm 1 mps 587 mmHg 34%
    13:00 +10°C° 0 mm 1 mps 587 mmHg 31%
    14:00 +11°C° 0 mm 1 mps 586 mmHg 27%
    15:00 +11°C° 0 mm 1 mps 586 mmHg 28%
    16:00 +10°C° 0 mm 2 mps 586 mmHg 29%
    17:00 +10°C° 0 mm 2 mps 586 mmHg 30%
    18:00 +10°C° 0 mm 1 mps 586 mmHg 33%
    19:00 +9°C° 0 mm 1 mps 586 mmHg 36%
    20:00 +8°C° 0 mm 1 mps 586 mmHg 39%
    21:00 +7°C° 0 mm 1 mps 586 mmHg 44%
    22:00 +7°C° 0 mm 1 mps 585 mmHg 49%
    23:00 +6°C° 0 mm 1 mps 585 mmHg 54%
    Show more